This demonstration page uses our WeatherBlox Daily Observations layout. Learn more.

36.17497, -115.13722

Hourly Observations for June 12, 2020

Temp ( °F °C ) Dew Point ( °F °C ) Humidity (%) Winds ( mph kmh ) Pressure ( in mb ) Visibility ( mi km ) Precip ( " mm )
12:53 am 00:53 Clear 83 28.3 21 -6.1 10 10 Calm 29.92 1013 10 16.0934 0 0
1:53 am 01:53 Clear 78 25.6 20 -6.7 11 11 NW 5 7 29.92 1013 10 16.0934 0 0
2:53 am 02:53 Clear 78 25.6 26 -3.3 15 15 Calm 29.91 1013 10 16.0934 0 0
3:53 am 03:53 Clear 74 23.3 27 -2.8 17 17 NW 6 9 29.93 1013 10 16.0934 0 0
4:53 am 04:53 Clear 74 23.3 26 -3.3 17 17 WNW 6 9 29.93 1014 10 16.0934 0 0
5:53 am 05:53 Sunny 72 22.2 23 -5 16 16 WNW 7 11 29.95 1014 10 16.0934 0 0
6:53 am 06:53 Sunny 77 25 26 -3.3 15 15 Calm 29.96 1014 10 16.0934 0 0
7:53 am 07:53 Sunny 84 28.9 23 -5 10 10 Calm 29.95 1014 10 16.0934 0 0
8:53 am 08:53 Sunny 88 31.1 23 -5 9 9 ESE 8 13 29.95 1014 10 16.0934 0 0
9:53 am 09:53 Sunny 93 33.9 22 -5.6 7 7 ESE 9 15 29.93 1014 10 16.0934 0 0
10:53 am 10:53 Sunny 95 35 24 -4.4 8 8 ESE 7 11 29.92 1013 10 16.0934 0 0
11:53 am 11:53 Sunny 98 36.7 25 -3.9 7 7 ESE 15 24 29.89 1012 10 16.0934 0 0
12:53 pm 12:53 Sunny 102 38.9 21 -6.1 5 5 SSW 18 30 29.85 1011 10 16.0934 0 0
1:53 pm 13:53 Sunny 102 38.9 19 -7.2 5 5 S 20 31 29.82 1010 10 16.0934 0 0
2:53 pm 14:53 Sunny 102 38.9 19 -7.2 5 5 SSW 16 26 29.79 1009 10 16.0934 0 0
3:53 pm 15:53 Sunny 102 38.9 14 -10 4 4 S 22 35 29.77 1008 10 16.0934 0 0
4:53 pm 16:53 Sunny 100 37.8 13 -10.6 4 4 S 24 39 29.75 1008 10 16.0934 0 0
5:53 pm 17:53 Sunny 99 37.2 17 -8.3 5 5 S 17 28 29.72 1007 10 16.0934 0 0
6:53 pm 18:53 Sunny 98 36.7 11 -11.7 4 4 SSW 22 35 29.72 1006 10 16.0934 0 0
7:53 pm 19:53 Sunny 94 34.4 13 -10.6 5 5 WSW 25 41 29.74 1007 10 16.0934 0 0
8:53 pm 20:53 Clear 90 32.2 17 -8.3 7 7 WSW 15 24 29.76 1008 10 16.0934 0 0
9:53 pm 21:53 Clear 88 31.1 17 -8.3 7 7 WSW 17 28 29.76 1008 10 16.0934 0 0
10:53 pm 22:53 Clear 85 29.4 17 -8.3 8 8 WSW 14 22 29.78 1009 10 16.0934 0 0
11:53 pm 23:53 Clear 83 28.3 22 -5.6 10 10 SW 14 22 29.8 1009 10 16.0934 0 0

Powered by AerisWeather